This is the latest recevied weather packets stored in our database for station/object WV6L-13. If no packets are shown the sender has not sent any weather packets the latest 1 day(s).
| Time | Temp. | Humidity | Pressure | Rain* | Wind** | Luminosity | Snow |
|---|---|---|---|---|---|---|---|
| 1836274526 | 23.89° C | 49% | 925.9 hPa | - | 0.89 m/s, 112° | - | - |
| 1778069392 | 8.33° C | 54% | 926.9 hPa | - | 0.89 m/s, 99° | - | - |
| 1778069093 | 8.33° C | 53% | 926.9 hPa | - | 1.34 m/s, 110° | - | - |
| 1778068792 | 8.89° C | 53% | 927 hPa | - | 0.89 m/s, 139° | - | - |
| 1778068492 | 8.33° C | 53% | 927.1 hPa | - | 0.89 m/s, 139° | - | - |
| 1778068193 | 8.89° C | 53% | 927 hPa | - | 0.45 m/s, 97° | - | - |
| 1778067892 | 8.89° C | 51% | 926.9 hPa | - | 0.45 m/s, 123° | - | - |
| 1778067594 | 8.89° C | 50% | 927 hPa | - | 0.89 m/s, 110° | - | - |
| 1778067292 | 9.44° C | 50% | 926.8 hPa | - | 0.89 m/s, 115° | - | - |
| 1778066992 | 8.89° C | 50% | 926.8 hPa | - | 0.45 m/s, 109° | - | - |
| 1778066692 | 9.44° C | 49% | 926.7 hPa | - | 0.45 m/s, 103° | - | - |
| 1778066393 | 9.44° C | 49% | 926.6 hPa | - | 0.89 m/s, 128° | - | - |
| 1778066092 | 9.44° C | 49% | 926.6 hPa | - | 0.89 m/s, 127° | - | - |
| 1778065794 | 10° C | 49% | 926.4 hPa | - | 0.89 m/s, 150° | - | - |
| 1778065493 | 9.44° C | 49% | 926.6 hPa | - | 0.89 m/s, 163° | - | - |
| 1778065193 | 10° C | 48% | 926.6 hPa | - | 0.89 m/s, 117° | - | - |
| 1778064893 | 10° C | 47% | 926.4 hPa | - | 0.89 m/s, 115° | - | - |
| 1778064592 | 10.56° C | 45% | 926.5 hPa | - | 0.89 m/s, 159° | - | - |
| 1778064292 | 10.56° C | 46% | 926.3 hPa | - | 0.89 m/s, 135° | - | - |
| 1778063093 | 10° C | 46% | 926.1 hPa | - | 0.89 m/s, 164° | - | - |
| 1778062492 | 9.44° C | 48% | 926 hPa | - | 0.89 m/s, 154° | - | - |
| 1778062193 | 10° C | 47% | 925.9 hPa | - | 0.89 m/s, 180° | - | - |
| 1778061893 | 10° C | 48% | 926.2 hPa | - | 0.89 m/s, 175° | - | - |
| 1778061593 | 10° C | 47% | 925.9 hPa | - | 0.89 m/s, 84° | - | - |
| 1778061293 | 10° C | 47% | 925.9 hPa | - | 0.89 m/s, 109° | - | - |
* Rain since midnight (hover to see other rain measurements)
** Current wind speed in m/s (hover to see current wind gust speed)